Weather History for KMFV - December, 2012

Change the Weather History Date:

Tuesday, December 25, 2012

  Actual Average (KWAL) Record (KWAL)
Temperature  
Mean Temperature 46 °F 38 °F  
Max Temperature 53 °F 47 °F 67 °F (1974)
Min Temperature 39 °F 30 °F 9 °F (1983)
Degree Days  
Heating Degree Days 19    
Month to date heating degree days  
Since 1 July heating degree days  
Cooling Degree Days 0    
Month to date cooling degree days  
Year to date cooling degree days  
Moisture  
Dew Point 40 °F    
Average Humidity 79    
Maximum Humidity 93    
Minimum Humidity 66    
Precipitation  
Precipitation 0.00 in 0.11 in 1.73 in (2006)
Month to date precipitation 2.84  
Year to date precipitation 40.25  
Sea Level Pressure  
Sea Level Pressure 30.08 in    
Wind  
Wind Speed 7 mph (SE)    
Max Wind Speed 13 mph    
Max Gust Speed 16 mph    
Visibility 10 miles    
Events      
T = Trace of Precipitation, MM = Missing Value Source: NWS Daily Summary

Daily Weather History Graph

Daily Weather History Graph

Search for Another Location

Airport or City:

Trip Planner

Search our weather history database for the weather conditions in past years. The results will help you decide how hot, cold, wet, or windy it might be!

Date:

Astronomy

Dec. 25, 2012 Rise Set
Actual Time 7:16 AM EST 4:50 PM EST
Civil Twilight 6:47 AM EST 5:19 PM EST
Nautical Twilight 6:14 AM EST 5:52 PM EST
Astronomical Twilight 5:42 AM EST 6:24 PM EST
Moon 2:56 PM EST (12/25) 4:47 AM EST (12/25)
Length of Visible Light 10h 32m
Length of Day
9h 34m
Waxing Gibbous, 93% of the Moon is Illuminated
Dec 25
Waxing Gibbous
Dec 28
Full
Jan 4
Last Quarter
Jan 11
New
Jan 18
First Quarter

Hourly Weather History & Observations

Time (EST) Temp. Windchill Dew Point Humidity Pressure Visibility Wind Dir Wind Speed Gust Speed Precip Events Conditions
12:15 AM 53.6 °F - 42.8 °F 67% 29.91 in 10.0 mi ESE 5.8 mph - N/A   Overcast
12:36 AM 51.8 °F - 42.8 °F 71% 29.91 in 10.0 mi ESE 6.9 mph - N/A   Overcast
12:55 AM 51.8 °F - 42.8 °F 71% 29.91 in 10.0 mi ESE 5.8 mph - N/A   Overcast
1:15 AM 51.8 °F - 42.8 °F 71% 29.91 in 10.0 mi ESE 8.1 mph - N/A   Overcast
1:35 AM 50.0 °F - 42.8 °F 76% 29.91 in 10.0 mi ESE 3.5 mph - N/A   Overcast
1:55 AM 50.0 °F - 42.8 °F 76% 29.92 in 10.0 mi ESE 5.8 mph - N/A   Overcast
2:15 AM 50.0 °F - 42.8 °F 76% 29.93 in 10.0 mi ESE 4.6 mph - N/A   Overcast
2:35 AM 50.0 °F - 42.8 °F 76% 29.94 in 10.0 mi ESE 4.6 mph - N/A   Overcast
2:55 AM 48.2 °F - 42.8 °F 82% 29.94 in 10.0 mi ESE 6.9 mph - N/A   Overcast
3:15 AM 48.2 °F - 42.8 °F 82% 29.95 in 10.0 mi ESE 8.1 mph - N/A   Overcast
3:35 AM 48.2 °F - 42.8 °F 82% 29.95 in 10.0 mi ESE 9.2 mph - N/A   Overcast
3:55 AM 48.2 °F - 42.8 °F 82% 29.95 in 10.0 mi ESE 10.4 mph - N/A   Overcast
4:15 AM 48.2 °F - 42.8 °F 82% 29.94 in 10.0 mi ESE 8.1 mph - N/A   Overcast
4:37 AM 46.4 °F 42.4 °F 42.8 °F 87% 29.96 in 10.0 mi ESE 8.1 mph 16.1 mph N/A   Overcast
4:55 AM 46.4 °F 40.7 °F 42.8 °F 87% 29.98 in 10.0 mi SE 12.7 mph - N/A   Overcast
5:17 AM 46.4 °F 41.5 °F 42.8 °F 87% 29.99 in 10.0 mi ESE 10.4 mph - N/A   Overcast
5:35 AM 46.4 °F 43.5 °F 41.0 °F 81% 29.99 in 10.0 mi ESE 5.8 mph - N/A   Overcast
5:55 AM 44.6 °F 39.2 °F 41.0 °F 87% 30.00 in 10.0 mi SE 10.4 mph - N/A   Overcast
6:15 AM 44.6 °F 40.2 °F 42.8 °F 93% 30.01 in 10.0 mi ESE 8.1 mph - N/A   Overcast
6:35 AM 44.6 °F 39.7 °F 41.0 °F 87% 30.02 in 10.0 mi ESE 9.2 mph - N/A   Overcast
6:55 AM 44.6 °F 40.2 °F 41.0 °F 87% 30.03 in 10.0 mi ESE 8.1 mph - N/A   Overcast
7:15 AM 44.6 °F 40.7 °F 41.0 °F 87% 30.05 in 10.0 mi ESE 6.9 mph - N/A   Overcast
7:35 AM 44.6 °F 39.7 °F 41.0 °F 87% 30.05 in 10.0 mi ESE 9.2 mph - N/A   Overcast
7:55 AM 44.6 °F 39.7 °F 41.0 °F 87% 30.06 in 10.0 mi SE 9.2 mph - N/A   Overcast
8:15 AM 46.4 °F 42.9 °F 41.0 °F 81% 30.07 in 10.0 mi SE 6.9 mph - N/A   Overcast
8:35 AM 46.4 °F 43.5 °F 41.0 °F 81% 30.08 in 10.0 mi ESE 5.8 mph - N/A   Overcast
8:55 AM 46.4 °F 43.5 °F 41.0 °F 81% 30.09 in 10.0 mi SE 5.8 mph - N/A   Mostly Cloudy
9:15 AM 46.4 °F 43.5 °F 41.0 °F 81% 30.10 in 10.0 mi ESE 5.8 mph - N/A   Scattered Clouds
9:35 AM 48.2 °F - 41.0 °F 76% 30.11 in 10.0 mi SE 6.9 mph - N/A   Scattered Clouds
9:55 AM 48.2 °F - 39.2 °F 71% 30.11 in 10.0 mi SE 9.2 mph - N/A   Scattered Clouds
10:15 AM 48.2 °F - 41.0 °F 76% 30.11 in 10.0 mi SE 9.2 mph - N/A   Scattered Clouds
10:35 AM 48.2 °F - 39.2 °F 71% 30.11 in 10.0 mi SE 9.2 mph - N/A   Scattered Clouds
10:55 AM 48.2 °F - 39.2 °F 71% 30.11 in 10.0 mi SE 8.1 mph - N/A   Clear
11:15 AM 48.2 °F - 39.2 °F 71% 30.10 in 10.0 mi SE 6.9 mph - N/A   Clear
11:35 AM 48.2 °F - 39.2 °F 71% 30.10 in 10.0 mi SE 6.9 mph - N/A   Clear
11:55 AM 48.2 °F - 39.2 °F 71% 30.11 in 10.0 mi ESE 8.1 mph - N/A   Clear
12:15 PM 48.2 °F - 39.2 °F 71% 30.09 in 10.0 mi ESE 6.9 mph - N/A   Clear
12:35 PM 50.0 °F - 39.2 °F 66% 30.08 in 10.0 mi ESE 5.8 mph - N/A   Clear
12:55 PM 50.0 °F - 39.2 °F 66% 30.09 in 10.0 mi ESE 6.9 mph - N/A   Clear
1:15 PM 48.2 °F - 39.2 °F 71% 30.10 in 10.0 mi ESE 10.4 mph - N/A   Clear
1:35 PM 48.2 °F - 39.2 °F 71% 30.09 in 10.0 mi ESE 9.2 mph - N/A   Clear
1:55 PM 48.2 °F - 39.2 °F 71% 30.09 in 10.0 mi SE 8.1 mph - N/A   Clear
2:17 PM 48.2 °F - 39.2 °F 71% 30.09 in 10.0 mi SE 9.2 mph - N/A   Clear
2:35 PM 48.2 °F - 39.2 °F 71% 30.10 in 10.0 mi SE 6.9 mph - N/A   Clear
2:55 PM 48.2 °F - 39.2 °F 71% 30.10 in 10.0 mi ESE 5.8 mph - N/A   Clear
3:15 PM 48.2 °F - 39.2 °F 71% 30.11 in 10.0 mi ESE 6.9 mph - N/A   Clear
3:35 PM 48.2 °F - 39.2 °F 71% 30.12 in 10.0 mi ESE 6.9 mph - N/A   Clear
3:55 PM 46.4 °F 43.5 °F 39.2 °F 76% 30.13 in 10.0 mi ESE 5.8 mph - N/A   Clear
4:15 PM 46.4 °F 43.5 °F 39.2 °F 76% 30.13 in 10.0 mi ESE 5.8 mph - N/A   Clear
4:35 PM 44.6 °F 42.2 °F 39.2 °F 81% 30.12 in 10.0 mi ESE 4.6 mph - N/A   Clear
4:56 PM 44.6 °F 42.2 °F 39.2 °F 81% 30.13 in 10.0 mi ESE 4.6 mph - N/A   Clear
5:15 PM 44.6 °F - 39.2 °F 81% 30.14 in 10.0 mi Calm Calm - N/A   Clear
5:35 PM 42.8 °F - 39.2 °F 87% 30.16 in 10.0 mi Calm Calm - N/A   Clear
5:55 PM 42.8 °F - 37.4 °F 81% 30.15 in 10.0 mi Calm Calm - N/A   Clear
6:35 PM 41.0 °F 39.0 °F 37.4 °F 87% 30.16 in 10.0 mi SE 3.5 mph - N/A   Clear
6:55 PM 41.0 °F 38.0 °F 37.4 °F 87% 30.16 in 7.0 mi SE 4.6 mph - N/A   Clear
7:15 PM 41.0 °F 39.0 °F 37.4 °F 87% 30.17 in 10.0 mi SE 3.5 mph - N/A   Clear
7:37 PM 39.2 °F 37.0 °F 37.4 °F 93% 30.17 in 7.0 mi SE 3.5 mph - N/A   Clear
7:55 PM 41.0 °F 37.1 °F 37.4 °F 87% 30.17 in 10.0 mi SE 5.8 mph - N/A   Clear
8:15 PM 42.8 °F 41.1 °F 37.4 °F 81% 30.19 in 10.0 mi SE 3.5 mph - N/A   Clear
8:35 PM 42.8 °F 40.1 °F 37.4 °F 81% 30.19 in 10.0 mi SE 4.6 mph - N/A   Clear
8:55 PM 42.8 °F 38.6 °F 37.4 °F 81% 30.19 in 10.0 mi SE 6.9 mph - N/A   Clear
9:17 PM 42.8 °F 40.1 °F 37.4 °F 81% 30.21 in 7.0 mi SE 4.6 mph - N/A   Scattered Clouds
9:35 PM 42.8 °F 38.6 °F 37.4 °F 81% 30.21 in 7.0 mi SE 6.9 mph - N/A   Scattered Clouds
9:55 PM 41.0 °F 35.8 °F 35.6 °F 81% 30.22 in 7.0 mi SE 8.1 mph - N/A   Scattered Clouds
10:15 PM 41.0 °F 36.4 °F 35.6 °F 81% 30.21 in 7.0 mi SE 6.9 mph - N/A   Scattered Clouds
10:35 PM 41.0 °F 35.2 °F 35.6 °F 81% 30.21 in 7.0 mi SSE 9.2 mph - N/A   Clear
10:56 PM 41.0 °F 35.2 °F 33.8 °F 76% 30.20 in 7.0 mi SE 9.2 mph - N/A   Clear
11:15 PM 41.0 °F 39.0 °F 33.8 °F 76% 30.23 in 10.0 mi SE 3.5 mph - N/A   Clear
11:37 PM 39.2 °F 34.2 °F 33.8 °F 81% 30.22 in 10.0 mi SE 6.9 mph - N/A   Clear
11:55 PM 39.2 °F 33.0 °F 33.8 °F 81% 30.18 in 10.0 mi SSE 9.2 mph - N/A   Clear